{"data":{"norad_id":69558,"intl_designator":"2026-135N","name":"STARLINK-37954","alt_names":[],"object_type":"PAYLOAD","status":"ACTIVE","operator":null,"country":"US","launch_date":"2026-06-15","launch_site_code":"AFWTR","launch_vehicle":null,"mission":null,"orbit_class":"UNKNOWN","rcs_meters":null,"size_class":null,"mass_kg":null,"dimensions":null,"purposes":["comms"],"wikipedia_slug":null,"has_3d_model":false,"image_url":null,"decayed_at":null,"tle_current":{"epoch":"2026-09-19T22:22:00.289056Z","epoch_age_seconds":70743,"freshness":"FRESH","line1":"1 69558U 26135N   26262.93194779  .00011013  00000+0  34285-3 0  9997","line2":"2 69558  97.2851 290.6315 0000530  87.3339 272.7964 15.33456052 14910","mean_motion":15.33456052,"eccentricity":5.3e-5,"inclination_deg":97.2851,"raan_deg":290.6315,"arg_perigee_deg":87.3339,"mean_anomaly_deg":272.7964,"bstar":0.00034285,"rev_number":1491,"period_min":93.905527851411,"perigee_km":465.14757839291,"apogee_km":465.87300500583,"semimajor_km":6843.6472916994,"source":"CELESTRAK","updated_at":"2026-09-20T09:00:44.244041Z"}}}